Tracking 30970 objects as of 3-Jul-2025
HD Live streaming from Space Station
objects crossing your sky now

AUREOLE 1

Track AUREOLE 1 now!
10-day predictions
AUREOLE 1 is classified as:


NORAD ID: 5729
Int'l Code: 1971-119A
Perigee: 389.4 km
Apogee: 1,442.8 km
Inclination: 74.0 °
Period: 103.2 minutes
Semi major axis: 7287 km
RCS: 2.1591 m2 (large)
Launch date: December 27, 1971
Source: France (FR)
Launch site: PLESETSK MISSILE AND SPACE COMPLEX (PKMTR)
Your satellite tracking list
COBE
Track 1 satellite(s)




NASA's NSSDC Master Catalog

Two Line Element Set (TLE):
1 05729U 71119A   25183.85958144  .00002941  00000-0  20385-3 0  9992
2 05729  73.9530 339.4003 0722769 254.3833  97.6457 13.95628566592909
Source of the keplerian elements: AFSPC